Wind_Speed
30 32 33 35 36 35 34 36 40 43 46 51 53 49 42 39 44 37 36 29 30 22 13 11 8 5 6 9 12 16 21 30 35 44 45 40 57 63 69 69 67 63 57 52 50 44 38
31 32 34 35 35 36 34 36 39 42 45 49 52 50 43 39 45 38 35 25 29 27 12 6 6 7 9 10 11 19 26 29 28 31 29 40 55 62 66 67 65 60 55 52 50 45 38
30 32 33 34 35 35 35 34 38 40 44 47 50 50 43 40 46 39 35 28 28 26 20 6 6 6 6 12 15 17 18 26 33 34 33 32 59 63 66 66 63 58 55 52 50 45 38
29 31 33 34 35 35 35 33 35 39 42 46 49 50 45 41 45 45 36 33 29 26 21 20 8 8 8 16 15 10 14 22 35 24 31 40 56 63 65 65 61 57 56 54 52 44 39
27 30 32 33 34 35 34 32 33 37 40 44 47 50 49 42 44 46 38 38 34 34 27 29 24 16 12 11 9 14 9 19 33 40 36 40 53 59 63 62 59 58 56 54 50 44 40
27 30 32 33 33 35 34 33 31 34 37 41 45 48 50 45 43 44 39 38 37 37 33 23 23 24 19 10 14 17 22 18 22 22 32 39 51 57 58 58 57 57 55 52 47 43 43
26 30 32 34 33 34 34 34 33 32 35 38 42 46 47 48 45 44 42 40 32 34 33 29 21 20 22 19 16 17 22 33 33 38 31 41 51 54 55 54 53 51 50 49 43 44 44
23 27 31 32 31 32 33 34 34 32 33 36 39 42 45 47 45 45 43 37 36 33 37 36 30 23 25 28 33 29 28 25 32 25 31 41 48 50 49 49 51 50 46 42 39 41 43
21 25 29 31 30 30 32 33 34 34 33 34 36 39 41 43 45 42 40 37 37 34 32 36 33 26 17 26 21 24 15 13 24 27 32 38 45 47 46 46 45 44 41 38 36 38 41
21 22 25 29 29 28 30 32 32 34 35 34 35 37 38 39 41 42 39 37 31 32 31 31 30 30 29 20 13 10 11 10 12 22 33 31 36 41 43 42 41 38 37 37 35 35 37
20 22 24 26 28 27 27 29 30 32 33 35 36 35 37 37 37 38 39 38 33 29 29 28 25 25 26 26 21 21 17 19 19 24 23 29 30 34 38 39 36 34 32 33 31 30 32
20 21 22 25 26 28 27 26 28 29 29 31 33 34 33 36 36 35 35 37 37 31 27 26 24 20 22 23 20 21 22 21 23 26 21 23 26 29 31 34 31 32 29 28 28 28 29
19 20 20 22 24 27 26 25 25 27 28 27 29 32 32 32 33 33 33 32 35 36 33 28 26 22 20 19 21 19 16 19 18 24 25 24 23 23 27 30 28 27 26 25 25 26 27
20 20 21 23 25 25 26 24 23 23 25 27 26 29 32 31 30 30 31 29 30 34 33 32 26 24 20 16 15 16 18 16 17 20 24 24 26 24 24 25 25 24 23 23 21 21 21
21 20 20 23 25 25 24 24 23 24 23 24 26 27 29 29 29 27 27 28 26 29 30 30 29 25 21 18 14 13 13 15 13 17 22 22 23 26 26 27 26 24 22 22 20 20 21
22 22 22 25 26 24 23 20 21 22 23 23 23 25 26 28 28 26 24 23 24 23 24 26 26 25 24 20 16 13 12 12 12 11 12 17 19 26 28 28 29 28 27 25 25 26 26
23 23 24 26 27 24 21 19 17 19 21 22 22 24 25 26 27 27 23 20 20 22 21 20 22 21 21 21 21 16 12 13 13 10 10 11 12 18 24 28 30 28 29 28 28 28 31
26 26 26 28 26 23 18 20 19 18 18 20 21 22 24 26 26 25 25 20 17 18 18 17 15 16 19 17 16 17 17 14 14 19 16 14 12 10 12 18 22 27 30 32 34 33 36
28 28 29 29 26 23 21 19 19 18 18 19 20 21 22 24 25 24 23 23 20 15 15 15 15 14 12 13 14 14 12 12 14 13 12 14 16 18 18 17 20 23 26 28 31 31 29
33 30 29 27 26 22 18 17 17 15 16 16 18 18 21 23 22 23 23 22 22 21 17 13 13 12 11 10 8 8 9 9 9 8 8 8 8 9 11 14 16 17 20 22 24 24 25
37 34 29 25 22 21 19 17 15 14 13 13 15 16 18 20 22 21 22 25 25 22 20 17 14 13 14 13 9 6 4 4 5 5 5 5 5 6 9 11 15 18 20 23 25 28 30
38 35 29 24 20 19 19 18 19 18 16 16 16 16 17 19 20 22 23 24 23 24 24 21 19 16 13 12 12 11 9 7 5 3 4 5 8 9 12 13 15 15 17 19 19 21 22
33 31 27 24 22 22 22 23 24 23 21 21 22 21 20 20 19 20 20 22 23 24 24 24 23 21 20 17 14 12 12 11 12 12 10 10 12 13 13 17 16 15 21 23 23 24 27
38 36 34 31 29 28 27 27 27 27 27 26 27 28 25 23 22 21 23 22 22 23 20 20 21 22 21 22 22 22 18 15 17 19 21 21 20 19 17 21 23 24 25 27 28 31 33
46 45 43 39 36 34 33 35 34 33 34 33 31 31 32 30 30 28 26 26 26 27 26 27 27 25 24 23 22 26 28 27 20 18 20 23 27 29 28 27 28 27 29 32 34 36 38
50 49 47 46 44 42 41 42 42 40 39 40 39 38 37 37 34 35 35 33 31 30 31 33 35 34 32 30 29 27 27 31 32 32 30 28 28 27 29 31 30 31 35 37 38 37 40
54 52 52 51 50 48 46 47 47 47 47 46 45 44 44 43 41 41 42 42 42 39 38 36 38 38 39 39 39 37 36 35 35 35 36 37 37 36 36 37 35 39 39 39 38 40 39
61 60 58 59 58 57 56 54 53 52 52 50 49 49 48 46 47 46 46 46 47 49 47 44 46 44 45 44 45 44 46 44 43 42 41 43 43 40 42 44 44 45 47 46 47 46 45
58 57 60 59 61 61 59 59 57 57 55 55 54 53 53 51 50 50 51 53 53 52 52 52 51 52 53 55 52 51 51 51 47 46 43 45 44 46 47 45 43 47 51 50 47 45 43
Wind_Direction
24 21 15 12 11 11 14 16 16 18 14 15 14 11 9 4 5 7 13 19 30 31 49 63 79 87 139 174 194 191 179 176 177 192 181 191 190 193 195 196 198 200 200 200 206 205 197
23 19 14 12 11 10 12 16 16 19 18 15 18 14 13 7 8 11 17 20 23 27 36 84 83 100 107 128 155 158 163 171 178 203 185 182 186 189 192 195 196 197 198 198 204 205 194
19 16 12 11 10 11 11 15 15 18 21 17 20 18 16 13 13 16 18 24 27 26 14 2 146 133 111 130 135 153 167 178 185 186 187 189 181 184 189 193 194 194 196 197 202 204 193
17 14 11 11 10 12 12 13 15 17 20 21 19 22 19 16 15 19 20 24 24 34 33 58 94 97 139 111 127 138 190 204 190 168 175 184 182 181 187 190 192 192 195 195 200 200 194
15 11 8 12 10 10 14 13 14 16 19 22 21 24 22 21 17 20 24 25 30 34 49 66 64 77 110 109 110 84 148 168 178 171 179 181 179 181 186 190 190 191 194 196 199 197 195
15 10 6 9 10 8 15 15 15 14 18 21 24 23 26 23 22 24 28 30 31 42 50 70 66 68 83 95 102 117 121 109 165 175 167 174 180 181 185 189 192 191 194 196 196 196 197
14 10 7 8 9 6 12 16 16 14 15 20 24 24 27 26 24 24 29 35 38 50 55 59 66 66 86 86 90 113 100 120 139 160 171 175 179 181 185 188 190 194 196 196 196 195 200
8 5 7 4 7 7 7 16 17 16 16 18 22 25 26 29 26 25 28 33 41 51 50 57 64 75 73 97 92 103 118 134 163 173 173 173 177 181 185 189 192 194 197 196 196 198 202
359 358 4 1 6 6 5 13 16 17 17 18 21 24 26 30 29 28 29 33 37 45 50 55 57 76 76 74 108 118 131 141 174 174 167 176 175 180 183 189 195 196 197 195 197 200 205
346 350 358 359 2 4 4 6 13 15 18 16 20 23 26 29 32 31 30 33 40 46 54 62 61 65 79 89 100 105 87 142 160 155 168 170 179 179 182 189 194 197 197 196 196 201 207
334 339 349 355 357 1 2 3 7 13 17 20 19 23 24 26 33 35 33 34 39 46 52 60 74 68 72 73 86 91 105 129 138 135 158 166 176 181 181 187 191 193 196 199 201 207 211
325 330 339 347 352 353 356 360 2 7 14 18 20 20 26 26 26 35 37 36 39 47 59 64 68 75 76 76 75 88 98 117 123 123 145 160 172 178 182 184 185 190 190 197 202 209 217
316 321 329 341 344 347 347 352 357 2 7 13 18 19 23 26 26 29 38 38 40 47 52 60 65 75 93 77 79 86 94 111 125 136 144 156 157 170 174 180 178 187 187 193 202 210 219
309 313 322 335 339 340 341 344 350 355 0 5 13 18 20 21 23 26 34 40 43 48 51 57 65 70 81 98 94 88 89 103 130 143 145 157 159 165 171 176 176 182 190 199 208 218 227
302 305 315 326 334 335 336 338 344 350 353 0 4 13 17 18 18 24 28 34 40 49 50 53 59 67 75 84 109 111 107 108 108 144 155 159 165 169 172 176 180 188 197 207 219 230 232
295 297 309 322 329 329 330 334 337 345 350 354 359 4 13 11 15 17 26 29 33 44 55 55 54 60 73 80 87 111 128 133 131 135 144 165 176 179 183 189 190 192 197 204 207 212 218
287 294 305 315 320 322 325 327 330 336 344 347 350 355 359 3 10 15 16 24 28 32 43 57 63 60 62 74 85 94 110 142 157 155 164 172 180 198 197 196 199 198 197 203 210 217 225
284 290 297 306 311 313 314 323 321 324 333 339 340 344 350 357 1 9 14 16 23 31 31 37 54 66 71 70 73 88 102 121 150 178 180 180 194 217 222 219 217 214 213 218 224 228 238
278 285 293 300 303 304 303 312 320 319 322 331 336 341 345 353 0 3 11 14 12 22 29 30 31 41 62 74 77 76 83 98 117 136 163 179 188 195 219 235 244 244 244 242 244 247 249
276 282 287 291 296 294 298 311 315 328 332 338 341 341 343 349 359 3 8 13 16 13 10 20 21 24 30 45 70 94 96 94 96 107 130 153 183 204 211 218 224 230 238 244 250 254 259
276 278 279 280 284 283 289 302 301 310 323 330 340 342 348 348 351 0 7 9 11 11 14 12 7 7 9 10 19 26 51 118 140 154 160 168 177 192 212 231 246 255 258 259 261 261 260
269 271 274 271 272 277 282 288 295 300 304 311 320 329 331 335 342 342 345 350 355 2 4 2 3 2 356 353 354 3 356 340 319 276 246 227 230 234 236 235 234 236 245 248 247 253 255
260 259 258 259 264 265 274 279 283 284 287 295 303 308 315 318 322 325 330 335 339 342 345 351 354 351 347 344 337 330 326 328 325 317 296 271 260 263 267 270 266 257 255 265 265 264 266
261 259 261 263 265 268 271 272 276 281 283 286 291 297 299 303 307 309 311 315 319 324 325 328 331 333 337 334 330 323 315 309 309 306 304 301 291 280 268 263 264 269 268 268 268 271 272
263 266 265 265 267 271 274 276 279 281 284 282 283 288 294 298 299 300 300 304 307 310 311 313 317 315 312 313 314 316 314 312 303 300 304 301 295 291 287 279 278 280 274 271 269 266 269
262 265 266 268 268 271 274 275 276 276 279 281 283 285 287 289 291 293 294 297 297 296 299 304 307 306 303 301 301 301 300 302 304 301 299 296 292 293 292 289 287 282 279 277 275 279 278
261 261 262 264 267 268 271 273 273 273 275 276 278 278 279 281 284 284 289 292 290 291 292 293 295 295 297 296 297 296 293 293 294 294 295 294 291 289 286 284 286 287 289 285 281 280 280
262 263 264 266 268 270 271 273 272 271 271 272 274 275 275 277 279 281 282 282 285 285 287 287 288 289 288 289 289 290 290 289 288 289 290 289 288 287 284 284 286 287 284 283 285 288 290
258 263 266 267 267 267 269 269 270 270 270 271 271 272 273 274 277 278 281 283 282 281 281 282 282 284 286 286 286 286 288 288 288 287 286 284 284 285 285 285 285 283 283 287 289 287 287
Height
5811 5806 5802 5797 5793 5786 5780 5774 5765 5757 5746 5735 5724 5712 5700 5690 5679 5667 5657 5648 5637 5628 5622 5619 5617 5617 5616 5619 5621 5624 5629 5636 5644 5645 5657 5667 5680 5695 5709 5723 5739 5751 5764 5776 5783 5792 5801
5811 5806 5803 5798 5793 5786 5779 5773 5765 5758 5747 5736 5726 5714 5701 5692 5681 5668 5658 5651 5642 5632 5625 5622 5621 5620 5620 5622 5623 5626 5632 5640 5647 5651 5657 5667 5677 5693 5708 5721 5735 5750 5762 5772 5779 5789 5798
5811 5807 5803 5799 5793 5786 5779 5773 5766 5758 5748 5739 5728 5716 5704 5694 5684 5671 5662 5654 5646 5635 5626 5623 5623 5624 5625 5627 5628 5632 5636 5640 5646 5650 5661 5667 5676 5690 5705 5719 5732 5746 5758 5768 5776 5786 5796
5811 5808 5804 5799 5794 5787 5780 5773 5766 5759 5750 5741 5730 5720 5707 5697 5687 5675 5666 5658 5651 5641 5631 5622 5623 5627 5628 5628 5631 5635 5638 5643 5648 5654 5661 5669 5679 5689 5702 5717 5730 5743 5755 5764 5773 5784 5794
5812 5809 5805 5800 5794 5788 5781 5774 5767 5760 5751 5743 5733 5723 5712 5701 5692 5681 5671 5663 5655 5644 5636 5629 5630 5631 5632 5633 5635 5637 5640 5643 5650 5657 5665 5670 5679 5691 5704 5718 5730 5741 5752 5763 5774 5782 5791
5813 5809 5805 5800 5794 5789 5783 5775 5769 5762 5755 5745 5736 5727 5717 5706 5697 5688 5678 5670 5661 5652 5646 5640 5638 5640 5639 5639 5640 5642 5646 5649 5653 5660 5666 5673 5684 5695 5707 5720 5732 5742 5752 5762 5773 5782 5788
5813 5810 5806 5800 5795 5790 5784 5777 5770 5764 5756 5748 5739 5731 5721 5711 5701 5693 5684 5675 5670 5662 5657 5649 5646 5647 5646 5647 5647 5649 5653 5655 5660 5666 5670 5679 5688 5698 5711 5723 5734 5745 5753 5762 5771 5778 5785
5813 5810 5806 5801 5796 5791 5785 5780 5772 5766 5759 5751 5743 5734 5726 5717 5706 5698 5689 5683 5678 5671 5664 5658 5655 5653 5654 5655 5657 5658 5662 5666 5669 5672 5677 5684 5693 5705 5717 5727 5735 5744 5754 5763 5771 5779 5785
5813 5810 5806 5802 5797 5792 5787 5781 5775 5769 5762 5756 5748 5739 5730 5722 5714 5705 5698 5691 5684 5678 5672 5668 5667 5663 5664 5664 5667 5669 5671 5674 5677 5680 5685 5691 5697 5708 5718 5728 5738 5746 5755 5763 5772 5778 5783
5812 5810 5806 5802 5798 5793 5788 5783 5777 5771 5765 5759 5752 5744 5736 5728 5721 5713 5705 5698 5691 5686 5683 5679 5676 5674 5672 5673 5675 5674 5676 5679 5681 5685 5690 5697 5705 5712 5722 5732 5740 5748 5756 5763 5769 5776 5782
5810 5808 5805 5802 5798 5793 5789 5784 5779 5774 5768 5761 5756 5749 5742 5734 5728 5720 5714 5706 5699 5694 5691 5688 5685 5684 5681 5681 5683 5681 5682 5684 5689 5692 5699 5704 5711 5719 5725 5734 5742 5751 5758 5764 5770 5775 5780
5809 5807 5805 5801 5797 5793 5789 5785 5780 5776 5771 5765 5758 5753 5747 5741 5735 5728 5720 5715 5708 5704 5698 5695 5693 5691 5690 5690 5690 5690 5690 5693 5695 5699 5706 5712 5717 5724 5731 5737 5744 5750 5758 5764 5769 5774 5779
5807 5805 5803 5800 5797 5793 5789 5785 5781 5777 5773 5768 5762 5757 5750 5745 5741 5734 5727 5722 5718 5710 5706 5703 5700 5698 5696 5696 5697 5697 5698 5700 5704 5707 5711 5716 5722 5728 5734 5740 5746 5752 5758 5764 5769 5772 5778
5805 5803 5801 5798 5795 5792 5788 5785 5781 5778 5773 5769 5765 5759 5754 5749 5745 5740 5734 5730 5724 5717 5712 5709 5706 5705 5704 5703 5703 5704 5706 5707 5710 5713 5717 5722 5727 5732 5738 5744 5749 5754 5760 5764 5768 5772 5777
5802 5801 5799 5796 5793 5790 5787 5784 5782 5778 5774 5770 5766 5761 5757 5753 5748 5744 5740 5735 5731 5724 5720 5715 5713 5711 5710 5710 5710 5710 5712 5714 5716 5718 5723 5726 5731 5735 5740 5745 5751 5755 5759 5764 5767 5770 5773
5799 5798 5796 5794 5791 5789 5786 5783 5781 5778 5775 5771 5767 5763 5759 5756 5752 5747 5744 5739 5736 5732 5727 5723 5719 5717 5716 5715 5716 5716 5717 5719 5722 5725 5728 5731 5734 5738 5743 5747 5750 5753 5757 5761 5763 5766 5769
5794 5794 5793 5791 5789 5786 5784 5781 5779 5777 5774 5771 5769 5765 5761 5758 5754 5750 5746 5742 5739 5736 5733 5730 5727 5724 5722 5720 5719 5721 5723 5725 5726 5728 5732 5734 5738 5742 5744 5747 5750 5754 5756 5759 5761 5763 5764
5790 5790 5789 5787 5786 5784 5781 5779 5776 5774 5772 5770 5768 5765 5761 5759 5757 5752 5749 5745 5742 5739 5737 5734 5732 5731 5728 5727 5726 5724 5725 5727 5729 5731 5734 5737 5740 5743 5746 5748 5749 5751 5754 5755 5756 5759 5759
5784 5785 5785 5783 5782 5780 5779 5777 5774 5772 5770 5768 5766 5765 5762 5759 5757 5754 5751 5748 5745 5741 5739 5737 5736 5734 5733 5732 5732 5730 5730 5730 5731 5733 5736 5738 5741 5743 5746 5749 5750 5751 5752 5753 5753 5754 5755
5778 5778 5779 5779 5778 5776 5775 5774 5773 5770 5768 5766 5765 5764 5762 5760 5757 5755 5753 5750 5748 5745 5743 5740 5739 5737 5735 5734 5734 5734 5733 5734 5734 5734 5735 5737 5739 5741 5743 5744 5746 5747 5748 5749 5749 5749 5750
5771 5772 5772 5773 5773 5772 5771 5770 5769 5768 5767 5765 5763 5762 5760 5760 5757 5755 5753 5751 5750 5748 5746 5743 5742 5741 5739 5738 5736 5736 5735 5734 5735 5736 5736 5737 5737 5738 5739 5740 5742 5743 5743 5743 5743 5742 5742
5762 5764 5764 5765 5766 5766 5766 5765 5765 5765 5764 5763 5762 5761 5759 5758 5757 5755 5753 5751 5749 5748 5747 5746 5744 5742 5741 5740 5739 5738 5737 5736 5735 5734 5734 5735 5736 5736 5737 5737 5738 5739 5739 5738 5739 5738 5737
5753 5755 5756 5757 5758 5759 5760 5760 5760 5760 5760 5759 5759 5758 5756 5755 5753 5753 5751 5750 5749 5747 5745 5745 5744 5743 5742 5741 5739 5737 5736 5735 5736 5736 5733 5730 5729 5730 5731 5731 5732 5734 5732 5730 5730 5729 5728
5744 5746 5747 5749 5750 5751 5752 5752 5752 5753 5753 5753 5753 5753 5753 5752 5750 5748 5748 5746 5744 5743 5742 5740 5739 5738 5739 5738 5738 5736 5734 5732 5732 5731 5731 5730 5728 5726 5726 5723 5723 5723 5722 5722 5721 5718 5717
5734 5736 5738 5739 5740 5742 5743 5743 5744 5745 5745 5745 5745 5746 5745 5746 5745 5744 5743 5743 5743 5741 5739 5737 5736 5735 5732 5731 5731 5732 5733 5732 5727 5724 5723 5722 5722 5722 5721 5719 5718 5716 5715 5713 5710 5709 5707
5722 5724 5727 5729 5730 5731 5733 5734 5734 5736 5736 5736 5737 5737 5737 5738 5739 5737 5736 5736 5735 5734 5734 5734 5732 5731 5729 5727 5725 5724 5722 5723 5724 5723 5721 5717 5713 5713 5711 5710 5710 5708 5704 5702 5701 5701 5697
5709 5712 5715 5717 5720 5721 5722 5723 5723 5724 5725 5726 5726 5727 5727 5727 5728 5727 5728 5728 5727 5726 5725 5724 5723 5722 5721 5721 5719 5717 5716 5715 5714 5713 5713 5710 5707 5706 5702 5699 5701 5697 5696 5694 5691 5691 5685
5694 5696 5701 5703 5705 5708 5710 5711 5712 5712 5712 5713 5714 5715 5715 5716 5716 5717 5717 5717 5717 5716 5715 5714 5713 5712 5710 5709 5708 5707 5705 5705 5704 5703 5701 5699 5697 5696 5693 5691 5691 5687 5682 5682 5681 5678 5675
5679 5682 5684 5687 5690 5692 5695 5697 5699 5698 5698 5700 5701 5700 5702 5703 5705 5705 5705 5705 5705 5704 5704 5703 5702 5700 5698 5696 5695 5693 5693 5692 5692 5692 5690 5686 5685 5683 5682 5679 5678 5672 5669 5669 5668 5665 5662